{"data":{"norad_id":69369,"epoch":"2026-09-20T01:35:43.440000Z","epoch_age_seconds":66473,"freshness":"FRESH","line1":"1 69369U 26123S   26263.06647500  .00023880  00000+0  71559-3 0  9994","line2":"2 69369  53.1591 143.7258 0001293  98.3294 261.7855 15.34401692 16803","mean_motion":15.34401692,"eccentricity":0.0001293,"inclination_deg":53.1591,"raan_deg":143.7258,"arg_perigee_deg":98.3294,"mean_anomaly_deg":261.7855,"bstar":0.00071559,"rev_number":1680,"period_min":93.847654594479,"perigee_km":461.81369123834,"apogee_km":463.58273122397,"semimajor_km":6840.8352112312,"source":"CELESTRAK","updated_at":"2026-09-20T09:00:44.167655Z"}}